User: anonymous   Login
Location: Unspecified
(0.0000°N, 0.0000°E)
Time: 18:05:00
(UTC+01:00)
Language:

Cosmos 1125 Rocket - Orbit

View from above orbital plane
View from above orbital plane
View from above satellite
View from above satellite

Ground track
Ground track

The orbit data is extracted from the following two-line orbital elements,

1 11511U 79078B   17344.60100455 +.00000037 +00000-0 +21469-4 0  9996
2 11511 074.0365 351.0468 0016006 196.9359 163.1263 14.36796632003954
Epoch (UTC): 10 December 2017 14:25:26
Eccentricity: 0.0016006
inclination: 74.0365°
perigee height: 757 km
apogee height: 780 km
right ascension of ascending node: 351.0468°
argument of perigee: 196.9359°
revolutions per day: 14.36796632
mean anomaly at epoch: 163.1263°
orbit number at epoch: 395

The dashed part of the orbit path shows where the satellite is in the earth's shadow,  

DLR